Regional Weather Roundup
Issued by NWS Wakefield, VA

Home | Current Version | Previous Version | Graphics & Text | Print | Product List | Glossary On
Versions: 1 2 3 4 5 6 7 8 9 10 11 12 13 14 15 16 17 18 19 20 21 22 23 24 25 26 27 28 29 30 31 32 33 34 35 36 37 38 39 40 41 42 43 44 45 46 47 48 49 50
000
ASUS41 KAKQ 080114
RWRAKQ

REGIONAL WEATHER ROUNDUP
NATIONAL WEATHER SERVICE WAKEFIELD VA
900 PM EDT TUE JUL 07 2015

Note: "fair" indicates few or no clouds below 12,000 feet with no
significant weather and/or obstructions to visibility. * = Denotes
station may not report precipitation (e.g., rain,snow,etc.),
thunder or fog.

VAZ042-051-052>054-056-080200-
NORTHERN VIRGINIA

CITY           SKY/WX    TMP DP  RH WIND       PRES   REMARKS
WASH NATIONAL  PTCLDY    83  73  72 S8        29.99R
DULLES         PTCLDY    80  70  71 S8        29.99S
FORT BELVOIR   PTCLDY    78  72  82 SE3       30.00R
QUANTICO       PTCLDY    82  70  66 SW5       30.00R
FREDERICKSBRG* PTCLDY    83  72  67 S7        30.00R
STAFFORD*      PTCLDY    79  69  70 CALM      30.05R
WARRENTON      PTCLDY    80  73  79 S5        30.00S
CULPEPER*      PTCLDY    79  70  74 S3        30.01S
MANASSAS*      NOT AVBL
LEESBURG*      PTCLDY    81  73  78 S8        30.00S
WINCHESTER     MOCLDY    81  70  69 CALM      30.00R
FRONT ROYAL*   FAIR      79  68  69 CALM      30.00R
LURAY*         FAIR      81  72  74 SW5       30.02S
$$

VAZ048-049-060>072-079>083-080200-
CENTRAL AND SOUTH CENTRAL VIRGINIA

CITY           SKY/WX    TMP DP  RH WIND       PRES   REMARKS
RICHMOND       PTCLDY    80  72  76 S6        30.03R
CHESTERFIELD*  NOT AVBL
PETERSBURG*    CLEAR     80  78  94 S3        30.05R
HANOVER        CLEAR     78  71  79 S5        30.04R
TAPPAHANNOCK*  CLEAR     79  69  71 CALM      30.03R
QUINTON*       NOT AVBL
CHARLOTTSVILLE PTCLDY    79  67  66 SW7       30.03R
GORDONSVILLE*  FAIR      77  72  83 CALM      30.02R
ORANGE*        PTCLDY    79  72  78 CALM      30.03S
LOUISA*        PTCLDY    79  72  78 CALM      30.02S
BUMPASS*       FAIR      77  71  81 SW5       30.02S
FARMVILLE*     PTCLDY    79  72  78 CALM      30.03R
CREWE*         FAIR      76  74  95 CALM      30.04R
FORT PICKETT*  FAIR      78  75  90 S3        30.05S
CHASE CITY*    FAIR      82  77  86 CALM      30.06R
CLARKSVILLE*   FAIR      77  73  88 S3        30.05S
SOUTH HILL*    CLEAR     77  75  93 S3        30.11S
LAWRENCEVILLE* NOT AVBL
EMPORIA*         N/A     79  73  83 CALM      30.07R
$$

VAZ088>098-080200-
SOUTHEAST VIRGINIA

CITY           SKY/WX    TMP DP  RH WIND       PRES   REMARKS
NORFOLK        MOCLDY    84  73  69 S5        30.04R
VIRGINIA BEACH PTCLDY    88  72  58 S6        30.04R
NORFOLK NAVAL  MOCLDY    82  74  76 S3        30.06R
WEST POINT*    CLEAR     82  73  74 CALM      30.04S
SALUDA*        FAIR      79  74  83 S9        30.02S
NEWPORT NEWS   CLEAR     83  75  77 S7        30.04S
LANGLEY AFB    CLEAR     84  74  73 S7        30.03R
FORT EUSTIS    CLEAR     83  83 100 S3        30.02S HX 102
WILLIAMSBURG*  CLEAR     84  75  74 S3        30.05R
HR EXEC AP*    FAIR      79  73  83 CALM      30.07R
FRANKLIN*      CLEAR     80  76  87 S3        30.05S
WAKEFIELD      CLEAR     80  75  84 CALM      30.05R
$$

VAZ020-022-025-037-045-080200-
WEST CENTRAL AND SOUTHWEST VIRGINIA

CITY           SKY/WX    TMP DP  RH WIND       PRES   REMARKS
STAUNTON*      MOCLDY    80  70  71 S3        30.08R
WAYNESBORO*    FAIR      77  67  72 S9        30.07S
HOT SPRINGS VA MOCLDY    72  64  75 SW10      30.20S
LYNCHBURG      PTCLDY    74  71  91 CALM      30.08R
DANVILLE       MOCLDY    80  71  74 S3        30.06S
SOUTH BOSTON*  FAIR      80  73  81 MISG      30.06R
MARTINSVILLE   MOCLDY    76  76 100 CALM      30.10S
ROANOKE        MOCLDY    80  68  66 S6        30.10R
BLACKSBURG     MOCLDY    75  69  82 CALM      30.17R
DUBLIN*        PTCLDY    75  69  81 SW3       30.16R
MARION*        MOCLDY    74  66  77 CALM      30.20R
HILLSVILLE*    PTCLDY    73  66  78 S6        30.18R
RICHLANDS*     FAIR      74  65  73 S7        30.17S
WISE*          CLOUDY    73  64  73 S7        30.17S
ABINGDON*      MOCLDY    78  67  70 W3        30.15S
$$

MDZ021>025-VAZ099-100-080200-
SOUTHERN MARYLAND AND THE DELMARVA PENINSULA

CITY           SKY/WX    TMP DP  RH WIND       PRES   REMARKS
PATUXENT RIVER PTCLDY    80  72  76 S5        30.00S
BAY BRIDGE APT   N/A     82  68  61 S5        29.99S
LEONARDTOWN    CLEAR     79  70  73 CALM      30.03R
DOVER          CLEAR     80  71  72 S6        29.98R
GEORGETOWN     CLEAR     79  72  79 S5        30.01S
EASTON         CLEAR    N/A N/A N/A SW3       30.04R
CAMBRIDGE      CLEAR     81  72  74 CALM      30.00R
SALISBURY      CLEAR     78  73  84 S6        30.02R
OCEAN CITY     CLEAR     79  75  87 SW9       30.02R
WALLOPS ISLAND PTCLDY    79  78  97 S8        30.03S
ACCOMACK*      PTCLDY    81  75  83 S6        30.03S
$$

NCZ012>017-030>032-080200-
NORTH CENTRAL AND EASTERN NORTH CAROLINA

CITY           SKY/WX    TMP DP  RH WIND       PRES   REMARKS
ROANOKE RAPIDS MOCLDY    77  73  88 CALM      30.06S
RALEIGH        PTCLDY    83  72  69 S5        30.08S
ELIZABETH CITY CLEAR     83  74  74 S10       30.07R
AHOSKIE*       CLEAR     79  76  90 CALM      30.07R
EDENTON*         N/A     83  74  75 SW10      30.07R
CURRITUCK*     CLEAR     84  71  65 S6        30.07R
KILL DEVIL HLS CLEAR     82  74  77 SW9       30.08R
MANTEO         CLEAR     82  75  79 SW13      30.09R
CAPE HATTERAS  CLEAR     78  75  90 SW12      30.11S
TARBORO*         N/A     85  74  69 S5        30.08R
GOLDSBORO      CLEAR     83  72  68 S6        30.07R
WASHINGTON     CLEAR     82  73  75 S6        30.09R
GREENVILLE     PTCLDY    82  73  74 S9G20     30.10R
NEW BERN       PTCLDY    80  72  76 S6        30.12R
WILMINGTON     PTCLDY    81  73  76 SW9       30.12R
$$

VAZ048-080200-
ELSEWHERE

CITY           SKY/WX    TMP DP  RH WIND       PRES   REMARKS
HARRISBURG PA  MOCLDY    80  68  66 S5        29.95S
BALTIMORE      PTCLDY    81  68  64 S3        29.98R
ANNAPOLIS      CLEAR     82  69  64 S3        29.99R
ANDREWS AFB    CLEAR     79  71  75 S8        30.00R
PHILADELPHIA   PTCLDY    85  70  60 SW10      29.98R
HENDERSON NC   CLEAR     79  71  76 CALM      30.07S
GREENSBORO     MOCLDY    82  70  66 S5        30.08R
ROCKY MOUNT    CLEAR     80  73  79 CALM      30.07R
$$

VAZ100-080200-
MARINE

STATION/POSITION TIME  TEMP    WIND        PRES    WAVE   SWELL
                       AIR SEA DIR/SP/G            HT/PER HT/PER
                 (UTC) (F)     (DEG/KT/KT) (MB)    (FT/S) (FT/S)
BRANDYWINE LGT   0000   81 76  230/ 11/ 13 1015.8R
CAPE MAY NJ      0000   81 80  220/  7/ 10 1015.4R
LEWES DE         0000   84 75  230/  5/  7 1015.7S
15NM E FENWICK I 0050   77 76              1016.3R   4/ 5
OCEAN-CITY-INLET 0000   76 77  210/ 11/ 13 1016.2R
WACHAPREAGUE VA  0000   84 88  230/  6/ 10 1016.9R
GOOSES REEF MD   0100   83 81  210/  6/  8 1016.7R
COVE POINT MD    0000   84     230/  7/  8 1016.4S
SOLOMONS ISLAND  0000      81                N/A
BISHOPS HEAD MD  0000   85     210/ 10/ 11 1015.9S
PINEY POINT MD   0000          230/  6/  7   N/A
CAMBRIDGE MD     0000   85 80  210/  4/  6 1015.6S
LEWISETTA VA     0000   84 82  230/  6/  7 1015.9F
RAPPAHANNOCK LGT 0000          210/ 10/ 12 1017.3R
STINGRAY PT      0100   84 82  210/  8/  8 1016.9R   0
YORK RVR RNG VA  0000   86     250/  8/  9 1016.4R
YORKTOWN VA      0000   85 82  220/  4/  6 1016.6R
JAMESTOWN VA     0100   84 84  180/  6/  8   N/A
DOMINION TERM VA 0000   84     230/  4/  5 1017.0R
KIPTOPEKE VA     0000      84  210/  6/  7   N/A
CHES BAY BRIDGE  0000   85 80  180/  6/  6 1016.8R
CAPE HENRY VA    0000   85     200/  3/  4   N/A
CHESAPEAKE LGHT  0000   81     180/ 14/ 15 1017.8R
WILLOUBY STN VA  0000   85     230/  8/  9 1018.0R
CAPE HENRY BUOY  0028      80                N/A     3/ 9   2/12
1ST LANDING BUOY 0100      81              1017.1R
CAPE CHARLES BUO 0026      78                N/A     2/ 9   2/ 9
OFFSHORE WE BUOY 0011      79                N/A     3/ 9   2/ 9
64NM E OF VA BCH 0050   79 77  200/ 14/ 17 1017.8R   4/ 9   2/ 9
DUCK PIER NC     0000   84 75  200/ 14/ 18   N/A
44100 DUCK FRF   0024      80                N/A     3/ 8   2/14
44056 DUCK FRF   0011      77                N/A     2/13   2/13
OREGON INLET NC  0000   82 85  200/ 19/ 22 1018.6R
HATTERAS NC      0000   80 82  210/ 10/ 15 1019.1S
DIAMOND SHLS NC  0050   82 83  220/ 17/ 19 1019.6R   3/ 8   2/ 8
CAPE LOOKOUT NC  0100   80     210/ 10/ 13 1019.7R
$$


USA.gov is the U.S. government's official web portal to all federal, state and local government web resources and services.